UAL1281 KASE-KDEN

Flight info

Callsign UAL1281
Flight time 0h 32m
Altitude 23000
Route LINDZ9 LINDZ IDENE JNETT SSKII3
Aircraft B739/M-SDE2E3FGHIRWXY/LB1

Departure

Time 2026-04-12 02:26
Airport Aspen-Pitkin County Airport (Sardy Field) (KASE)

Arrival

Time 2026-04-12 02:58
Airport Denver International Airport (KDEN)
Time Latitude Longitude Altitude Speed Heading
2026-04-12 02:13 39.21945 -106.86525 7777 ft 0 kts 79°
2026-04-12 02:21 39.21944 -106.86528 7779 ft 0 kts 82°
2026-04-12 02:21 39.21943 -106.86532 7779 ft 1 kts 103°
2026-04-12 02:21 39.21945 -106.86540 7780 ft 1 kts 118°
2026-04-12 02:21 39.21938 -106.86541 7775 ft 1 kts 185°
2026-04-12 02:22 39.21927 -106.86542 7777 ft 3 kts 185°
2026-04-12 02:22 39.21873 -106.86544 7788 ft 12 kts 175°
2026-04-12 02:22 39.21774 -106.86505 7800 ft 15 kts 160°
2026-04-12 02:22 39.21677 -106.86459 7807 ft 15 kts 159°
2026-04-12 02:23 39.21583 -106.86413 7816 ft 14 kts 159°
2026-04-12 02:23 39.21494 -106.86370 7821 ft 13 kts 161°
2026-04-12 02:23 39.21408 -106.86331 7824 ft 13 kts 161°
2026-04-12 02:23 39.21324 -106.86293 7831 ft 13 kts 161°
2026-04-12 02:24 39.21243 -106.86256 7834 ft 12 kts 161°
2026-04-12 02:24 39.21178 -106.86301 7839 ft 12 kts 256°
2026-04-12 02:24 39.21182 -106.86339 7837 ft 4 kts 303°
2026-04-12 02:24 39.21260 -106.86384 7832 ft 34 kts 339°
2026-04-12 02:25 39.21692 -106.86583 7806 ft 97 kts 340°
2026-04-12 02:25 39.22508 -106.86974 7740 ft 150 kts 339°
2026-04-12 02:25 39.23584 -106.87442 7841 ft 170 kts 346°
2026-04-12 02:25 39.24741 -106.87921 7859 ft 181 kts 332°
2026-04-12 02:26 39.25807 -106.88706 8462 ft 174 kts 321°
2026-04-12 02:26 39.26714 -106.89814 8769 ft 188 kts 315°
2026-04-12 02:26 39.27659 -106.91136 8873 ft 211 kts 310°
2026-04-12 02:26 39.28666 -106.92667 8881 ft 243 kts 311°
2026-04-12 02:27 39.29830 -106.94454 8784 ft 269 kts 310°
2026-04-12 02:27 39.30938 -106.96400 8951 ft 271 kts 297°
2026-04-12 02:27 39.31683 -106.98639 9103 ft 275 kts 292°
2026-04-12 02:27 39.32468 -107.00968 9387 ft 287 kts 292°
2026-04-12 02:28 39.33350 -107.03363 9749 ft 304 kts 292°
2026-04-12 02:28 39.34317 -107.05823 10144 ft 318 kts 293°
2026-04-12 02:28 39.35313 -107.08433 10306 ft 328 kts 292°
2026-04-12 02:28 39.36196 -107.11042 10881 ft 306 kts 284°
2026-04-12 02:29 39.37217 -107.13497 11189 ft 329 kts 321°
2026-04-12 02:29 39.39492 -107.14164 11830 ft 336 kts 354°
2026-04-12 02:29 39.41725 -107.13893 13267 ft 317 kts 12°
2026-04-12 02:29 39.43743 -107.12630 13762 ft 327 kts 31°
2026-04-12 02:30 39.45410 -107.10619 14249 ft 333 kts 56°
2026-04-12 02:30 39.46354 -107.07917 14740 ft 330 kts 81°
2026-04-12 02:30 39.46479 -107.04997 15223 ft 323 kts 104°
2026-04-12 02:30 39.46009 -107.02187 15731 ft 320 kts 108°
2026-04-12 02:31 39.45425 -106.99386 15960 ft 327 kts 110°
2026-04-12 02:31 39.44819 -106.96497 16215 ft 339 kts 109°
2026-04-12 02:31 39.44208 -106.93483 16340 ft 354 kts 108°
2026-04-12 02:31 39.43578 -106.90337 16497 ft 369 kts 108°
2026-04-12 02:32 39.42928 -106.87057 16533 ft 382 kts 108°
2026-04-12 02:32 39.42266 -106.83699 16900 ft 386 kts 108°
2026-04-12 02:32 39.41607 -106.80333 17416 ft 387 kts 107°
2026-04-12 02:32 39.40947 -106.76959 17950 ft 387 kts 107°
2026-04-12 02:33 39.40282 -106.73584 18469 ft 388 kts 107°
2026-04-12 02:33 39.39614 -106.70203 18929 ft 387 kts 107°
2026-04-12 02:33 39.38949 -106.66837 19377 ft 387 kts 107°
2026-04-12 02:33 39.38287 -106.63474 19866 ft 385 kts 107°
2026-04-12 02:34 39.37646 -106.60253 20352 ft 384 kts 107°
2026-04-12 02:34 39.36982 -106.56926 20940 ft 381 kts 107°
2026-04-12 02:34 39.36322 -106.53617 21461 ft 379 kts 107°
2026-04-12 02:34 39.35674 -106.50375 21974 ft 377 kts 107°
2026-04-12 02:35 39.34992 -106.47080 22247 ft 381 kts 111°
2026-04-12 02:35 39.34114 -106.43855 22561 ft 382 kts 114°
2026-04-12 02:35 39.33137 -106.40651 22856 ft 385 kts 115°
2026-04-12 02:35 39.32134 -106.37423 23122 ft 389 kts 115°
2026-04-12 02:36 39.31125 -106.34139 23131 ft 400 kts 116°
2026-04-12 02:36 39.30102 -106.30749 23171 ft 410 kts 115°
2026-04-12 02:36 39.29062 -106.27278 23169 ft 420 kts 115°
2026-04-12 02:36 39.28004 -106.23718 23182 ft 430 kts 115°
2026-04-12 02:37 39.26920 -106.20070 23150 ft 440 kts 115°
2026-04-12 02:37 39.25817 -106.16346 23110 ft 449 kts 113°
2026-04-12 02:37 39.25133 -106.12369 23107 ft 463 kts 95°
2026-04-12 02:37 39.25435 -106.08201 23075 ft 473 kts 79°
2026-04-12 02:38 39.26162 -106.04096 23001 ft 464 kts 78°
2026-04-12 02:38 39.26895 -106.00103 22797 ft 450 kts 78°
2026-04-12 02:38 39.27599 -105.96226 22590 ft 437 kts 79°
2026-04-12 02:38 39.28265 -105.92450 22358 ft 425 kts 80°
2026-04-12 02:39 39.28894 -105.88782 22204 ft 413 kts 80°
2026-04-12 02:39 39.29498 -105.85204 22063 ft 405 kts 80°
2026-04-12 02:39 39.30085 -105.81685 21742 ft 408 kts 80°
2026-04-12 02:39 39.30692 -105.78042 21351 ft 411 kts 80°
2026-04-12 02:40 39.31287 -105.74472 20984 ft 412 kts 80°
2026-04-12 02:40 39.31993 -105.70900 20575 ft 412 kts 65°
2026-04-12 02:40 39.33673 -105.67960 20227 ft 405 kts 39°
2026-04-12 02:40 39.35671 -105.65440 19831 ft 402 kts 55°
2026-04-12 02:41 39.36910 -105.62245 19480 ft 397 kts 76°
2026-04-12 02:41 39.37576 -105.58764 19127 ft 392 kts 77°
2026-04-12 02:41 39.38282 -105.55421 18785 ft 389 kts 75°
2026-04-12 02:41 39.39077 -105.52099 18426 ft 385 kts 73°
2026-04-12 02:42 39.39924 -105.48806 18019 ft 376 kts 72°
2026-04-12 02:42 39.40754 -105.45640 17626 ft 367 kts 72°
2026-04-12 02:42 39.41548 -105.42533 17219 ft 360 kts 77°
2026-04-12 02:43 39.43313 -105.36596 16999 ft 359 kts 57°
2026-04-12 02:43 39.44780 -105.33980 16977 ft 360 kts 50°
2026-04-12 02:43 39.46374 -105.31484 16943 ft 358 kts 48°
2026-04-12 02:43 39.47969 -105.29029 16949 ft 356 kts 51°
2026-04-12 02:44 39.49432 -105.26493 16869 ft 347 kts 54°
2026-04-12 02:44 39.50825 -105.23952 16449 ft 344 kts 54°
2026-04-12 02:44 39.52196 -105.21434 16056 ft 339 kts 54°
2026-04-12 02:44 39.53552 -105.18961 15670 ft 334 kts 53°
2026-04-12 02:45 39.54894 -105.16531 15302 ft 330 kts 53°
2026-04-12 02:45 39.56222 -105.14130 14963 ft 327 kts 53°
2026-04-12 02:45 39.57556 -105.11743 14859 ft 326 kts 53°
2026-04-12 02:45 39.58904 -105.09336 14636 ft 333 kts 53°
2026-04-12 02:46 39.60263 -105.06909 14401 ft 332 kts 52°
2026-04-12 02:46 39.61611 -105.04498 14168 ft 330 kts 52°
2026-04-12 02:46 39.62957 -105.02090 13932 ft 327 kts 52°
2026-04-12 02:46 39.64279 -104.99722 13787 ft 324 kts 52°
2026-04-12 02:47 39.65592 -104.97369 13536 ft 320 kts 52°
2026-04-12 02:47 39.66891 -104.95040 13273 ft 317 kts 52°
2026-04-12 02:47 39.68176 -104.92735 13017 ft 314 kts 52°
2026-04-12 02:47 39.69452 -104.90446 12734 ft 311 kts 53°
2026-04-12 02:48 39.70707 -104.88191 12485 ft 309 kts 53°
2026-04-12 02:48 39.72003 -104.85978 12221 ft 306 kts 43°
2026-04-12 02:48 39.73743 -104.84509 11949 ft 295 kts 15°
2026-04-12 02:48 39.75712 -104.83999 11719 ft 285 kts 359°
2026-04-12 02:49 39.77017 -104.83957 11556 ft 281 kts 356°
2026-04-12 02:49 39.78959 -104.83980 11306 ft 278 kts 355°
2026-04-12 02:49 39.80881 -104.83997 11047 ft 275 kts 356°
2026-04-12 02:49 39.82769 -104.83994 10833 ft 267 kts 356°
2026-04-12 02:50 39.85180 -104.83978 10529 ft 257 kts 356°
2026-04-12 02:50 39.86951 -104.83961 10295 ft 254 kts 356°
2026-04-12 02:50 39.88143 -104.83949 10131 ft 253 kts 356°
2026-04-12 02:50 39.89896 -104.83930 9893 ft 251 kts 356°
2026-04-12 02:51 39.91641 -104.83909 9650 ft 250 kts 357°
2026-04-12 02:51 39.93370 -104.83870 9389 ft 248 kts 357°
2026-04-12 02:51 39.95092 -104.83814 9126 ft 248 kts 359°
2026-04-12 02:51 39.96833 -104.83652 9035 ft 252 kts
2026-04-12 02:52 39.98575 -104.83448 8980 ft 250 kts
2026-04-12 02:52 40.00301 -104.83237 8975 ft 249 kts
2026-04-12 02:52 40.02008 -104.83025 8979 ft 250 kts
2026-04-12 02:52 40.03712 -104.82516 8941 ft 257 kts 24°
2026-04-12 02:53 40.05098 -104.81012 8708 ft 264 kts 53°
2026-04-12 02:53 40.05766 -104.78832 8439 ft 257 kts 82°
2026-04-12 02:53 40.05536 -104.74408 7978 ft 237 kts 125°
2026-04-12 02:54 40.04450 -104.72971 7993 ft 215 kts 150°
2026-04-12 02:54 40.03337 -104.71656 7997 ft 218 kts 137°
2026-04-12 02:54 40.02321 -104.70265 7896 ft 201 kts 140°
2026-04-12 02:54 40.01307 -104.69120 7717 ft 184 kts 151°
2026-04-12 02:55 40.00240 -104.68421 7516 ft 178 kts 174°
2026-04-12 02:55 39.99029 -104.68372 7235 ft 171 kts 190°
2026-04-12 02:55 39.97859 -104.68481 7054 ft 168 kts 192°
2026-04-12 02:55 39.96682 -104.68580 6875 ft 174 kts 188°
2026-04-12 02:56 39.95441 -104.68680 6595 ft 178 kts 181°
2026-04-12 02:56 39.94220 -104.68598 6357 ft 173 kts 180°
2026-04-12 02:56 39.93044 -104.68594 6044 ft 168 kts 185°
2026-04-12 02:56 39.91876 -104.68681 5889 ft 169 kts 184°
2026-04-12 02:57 39.90723 -104.68679 5591 ft 159 kts 181°
2026-04-12 02:57 39.89660 -104.68684 5366 ft 151 kts 184°
2026-04-12 02:57 39.88697 -104.68688 5356 ft 121 kts 182°
2026-04-12 02:57 39.87981 -104.68700 5363 ft 76 kts 180°
2026-04-12 02:58 39.87798 -104.68674 5363 ft 12 kts 160°
2026-04-12 02:58 39.87732 -104.68639 5363 ft 12 kts 155°
2026-04-12 02:58 39.87639 -104.68576 5361 ft 18 kts 150°
2026-04-12 02:58 39.87522 -104.68504 5361 ft 18 kts 161°
2026-04-12 02:59 39.87397 -104.68494 5360 ft 18 kts 180°
2026-04-12 02:59 39.87275 -104.68495 5358 ft 17 kts 180°
2026-04-12 02:59 39.87157 -104.68497 5359 ft 17 kts 181°
2026-04-12 02:59 39.87044 -104.68499 5358 ft 16 kts 181°
2026-04-12 03:00 39.86937 -104.68502 5357 ft 15 kts 181°
2026-04-12 03:00 39.86832 -104.68506 5361 ft 15 kts 181°
2026-04-12 03:00 39.86732 -104.68510 5364 ft 14 kts 182°
2026-04-12 03:00 39.86636 -104.68512 5365 ft 13 kts 179°
2026-04-12 03:01 39.86545 -104.68505 5363 ft 13 kts 182°
2026-04-12 03:01 39.86456 -104.68509 5364 ft 13 kts 180°
2026-04-12 03:01 39.86370 -104.68506 5366 ft 12 kts 178°
2026-04-12 03:01 39.86279 -104.68509 5365 ft 14 kts 181°
2026-04-12 03:02 39.86173 -104.68511 5362 ft 16 kts 181°
2026-04-12 03:02 39.86064 -104.68512 5363 ft 15 kts 179°
2026-04-12 03:02 39.85960 -104.68511 5365 ft 15 kts 180°
2026-04-12 03:02 39.85860 -104.68512 5366 ft 14 kts 180°
2026-04-12 03:03 39.85764 -104.68512 5365 ft 13 kts 180°
2026-04-12 03:03 39.85693 -104.68463 5368 ft 13 kts 99°
2026-04-12 03:03 39.85690 -104.68348 5373 ft 13 kts 92°
2026-04-12 03:03 39.85686 -104.68235 5384 ft 12 kts 92°
2026-04-12 03:04 39.85674 -104.68126 5385 ft 12 kts 99°
2026-04-12 03:04 39.85692 -104.68030 5385 ft 12 kts 22°
2026-04-12 03:04 39.85737 -104.67950 5385 ft 12 kts 89°
2026-04-12 03:04 39.85733 -104.67840 5385 ft 12 kts 92°
2026-04-12 03:05 39.85730 -104.67732 5385 ft 12 kts 92°
2026-04-12 03:05 39.85727 -104.67626 5385 ft 12 kts 92°
2026-04-12 03:05 39.85727 -104.67522 5385 ft 11 kts 89°
2026-04-12 03:05 39.85728 -104.67417 5385 ft 12 kts 89°
2026-04-12 03:06 39.85730 -104.67311 5385 ft 12 kts 89°
2026-04-12 03:06 39.85731 -104.67202 5385 ft 12 kts 90°
2026-04-12 03:06 39.85730 -104.67095 5385 ft 12 kts 90°
2026-04-12 03:06 39.85730 -104.67015 5385 ft 0 kts 90°
2026-04-12 03:07 39.85743 -104.66994 5385 ft 6 kts 30°
2026-04-12 03:07 39.85791 -104.66995 5385 ft 7 kts
2026-04-12 03:07 39.85793 -104.66995 5385 ft 0 kts